Location: Newark
(52.3500°N, 175.9667°E)
Time: 22:08:17
(UTC+00:00)

Transit 4A - Pass Details

Date: 19 April 2021
Orbit: 871 x 974 km, 66.8° (Epoch: 16 May)

Event Time Altitude Azimuth Distance (km) Brightness Sun altitude
Rises 12:48:05 0° 224° (SW) 3,620 - -25.9°
Reaches altitude 10° 12:50:39 10° 226° (SW) 2,665 - -25.8°
Exits shadow 12:55:19 52° 243° (WSW) 1,153 8.1 -25.7°
Maximum altitude 12:56:52 74° 311° (NW) 969 7.9 -25.7°
Drops below altitude 10° 13:02:56 10° 37° (NE) 2,606 11.1 -25.5°
Sets 13:05:26 0° 40° (NE) 3,535 11.9 -25.4°
